Weather History for Kansas City, MO

Change the Weather History Date:

Sunday, October 6, 2013

  Actual Average Record
Temperature  
Mean Temperature 53 °F -  
Max Temperature 61 °F 69 °F 89 °F (1997)
Min Temperature 45 °F 49 °F 36 °F (2000)
Degree Days  
Heating Degree Days 12    
Growing Degree Days 3 (Base 50)    
Moisture  
Dew Point 39 °F    
Average Humidity 59    
Maximum Humidity 77    
Minimum Humidity 48    
Precipitation  
Precipitation 0.00 in - - ()
Sea Level Pressure  
Sea Level Pressure 29.91 in    
Wind  
Wind Speed 10 mph (West)    
Max Wind Speed 15 mph    
Max Gust Speed 23 mph    
Visibility 10 miles    
Events      
Averages and records for this station are not official NWS values.
T = Trace of Precipitation, MM = Missing Value Source: NWS Daily Summary

Daily Weather History Graph

Daily Weather History Graph

Search for Another Location

Airport:

Trip Planner

Search our weather history database for the weather conditions in past years. The results will help you decide how hot, cold, wet, or windy it might be!

Date:

Astronomy

Oct. 06, 2013 Rise Set
Actual Time 7:19 AM CDT 6:52 PM CDT
Civil Twilight 6:52 AM CDT 7:19 PM CDT
Nautical Twilight 6:21 AM CDT 7:50 PM CDT
Astronomical Twilight 5:50 AM CDT 8:21 PM CDT
Moon 9:03 AM CDT (10/6) 7:53 PM CDT (10/6)
Length of Visible Light 12h 26m
Length of Day
11h 33m
Waxing Crescent, 3% of the Moon is Illuminated
Oct 6
Waxing Crescent
Oct 11
First Quarter
Oct 18
Full
Oct 26
Last Quarter
Nov 3
New

Hourly Weather History & Observations

Time (CDT) Temp. Windchill Dew Point Humidity Pressure Visibility Wind Dir Wind Speed Gust Speed Precip Events Conditions
12:54 AM 50.0 °F - 34.0 °F 54% 29.90 in 10.0 mi WSW 6.9 mph 16.1 mph N/A   Clear
1:54 AM 48.9 °F - 33.1 °F 54% 29.90 in 10.0 mi WSW 10.4 mph - N/A   Clear
2:54 AM 46.9 °F - 33.1 °F 59% 29.89 in 10.0 mi WSW 9.2 mph - N/A   Clear
3:54 AM 46.0 °F 41.9 °F 34.0 °F 63% 29.86 in 10.0 mi SW 8.1 mph - N/A   Clear
4:54 AM 46.0 °F 41.9 °F 35.1 °F 66% 29.86 in 10.0 mi WSW 8.1 mph - N/A   Clear
5:54 AM 45.0 °F 40.6 °F 36.0 °F 71% 29.86 in 10.0 mi WSW 8.1 mph - N/A   Scattered Clouds
6:54 AM 48.0 °F - 36.0 °F 63% 29.87 in 10.0 mi WSW 8.1 mph - N/A   Overcast
7:54 AM 48.0 °F - 37.0 °F 66% 29.88 in 10.0 mi West 10.4 mph - N/A   Overcast
8:54 AM 48.0 °F - 37.0 °F 66% 29.89 in 10.0 mi West 10.4 mph 16.1 mph N/A   Mostly Cloudy
9:54 AM 51.1 °F - 37.9 °F 61% 29.89 in 10.0 mi WNW 13.8 mph 20.7 mph N/A   Mostly Cloudy
10:54 AM 54.0 °F - 37.9 °F 55% 29.91 in 10.0 mi West 15.0 mph 20.7 mph N/A   Overcast
11:54 AM 55.0 °F - 39.0 °F 55% 29.92 in 10.0 mi WNW 12.7 mph 21.9 mph N/A   Overcast
12:54 PM 57.0 °F - 39.0 °F 51% 29.92 in 10.0 mi West 13.8 mph 23.0 mph N/A   Mostly Cloudy
1:54 PM 57.9 °F - 39.0 °F 49% 29.90 in 10.0 mi West 11.5 mph 20.7 mph N/A   Mostly Cloudy
2:54 PM 61.0 °F - 41.0 °F 48% 29.88 in 10.0 mi West 15.0 mph 21.9 mph N/A   Overcast
3:54 PM 61.0 °F - 41.0 °F 48% 29.88 in 10.0 mi WSW 11.5 mph 19.6 mph N/A   Overcast
4:20 PM 60.8 °F - 42.8 °F 52% 29.88 in 10.0 mi West 11.5 mph 17.3 mph N/A   Overcast
4:54 PM 60.1 °F - 42.1 °F 51% 29.90 in 10.0 mi NW 11.5 mph - N/A   Overcast
5:54 PM 57.9 °F - 43.0 °F 58% 29.91 in 10.0 mi West 10.4 mph 21.9 mph N/A   Overcast
6:54 PM 57.0 °F - 42.1 °F 57% 29.94 in 10.0 mi NNW 12.7 mph - N/A   Overcast
7:54 PM 55.9 °F - 42.1 °F 60% 29.96 in 10.0 mi NW 15.0 mph 21.9 mph N/A   Overcast
8:54 PM 55.0 °F - 43.0 °F 64% 29.97 in 10.0 mi NNW 13.8 mph 20.7 mph N/A   Overcast
9:54 PM 55.0 °F - 44.1 °F 67% 29.99 in 10.0 mi NW 8.1 mph - N/A   Overcast
10:54 PM 53.1 °F - 44.1 °F 71% 30.00 in 10.0 mi WNW 5.8 mph - N/A   Clear
11:54 PM 51.1 °F - 44.1 °F 77% 30.00 in 10.0 mi Calm Calm - N/A   Clear